Weather in Tolmachevo

Russia / Saint-Petersburg and Leningrad Oblast     58°51′43″N   29°54′15″E
temp.,
°C
wind,
m/s
gust,
m/s
humid.,
%
clouds,
%
prec.,
mm/h
press.,
hPa
HPBL,
m
20 april, tue
tue2000:00+5e28715 0.0 1025192
03:00+3ene277186 0.0 1024146
06:00+2ene2678100 0.0 1023146
09:00+7e37645 0.0 1022501
12:00+10ese5642100 0.0 10201858
15:00+10ese464084 0.0 10191737
18:00+10se464568 0.0 10171588
21:00+8ese3864100 0.0 1016485
21 april, wed
wed2100:00+5ese228051 0.0 101543
03:00+3e249195 0.0 1013108
06:00+2ene23979 0.0 101181
09:00+5ne2382100 0.0 1009620
12:00+5n2379100 0.0 1007650
15:00+9n255978 0.1 10051236
18:00+8nnw1370100 0.1 10041051
21:00+4se23925 0.3 100461
22 april, thu
thu2200:00+3sse239573 0.0 100442
03:00+2s228970 0.0 100428
06:00+2ssw259566 0.0 1004107
09:00+9ssw357092 0.0 1005409
12:00+13sw36435 0.0 10061684
15:00+14ssw4742100 0.0 10062241
18:00+13sw474746 0.0 10051731
21:00+7wsw3690100 3.2 1008397
23 april, fri
fri2300:00+5ssw2791100 0.0 1008203
03:00+4s2787100 0.0 1008220
06:00+4s2590100 0.0 1007211
09:00+5ssw3669100 0.0 1008711
12:00+9ssw474699 0.0 10082014
15:00+9ssw5954100 0.6 10091750
18:00+9ssw47505 0.6 10092099
21:00+4s236964 0.6 101059
24 april, sat
sat2400:00+2s2479100 0.0 101080
03:00+1s2282100 0.0 100934
06:000ssw129031 0.0 100930
09:00+5ssw236681 0.0 1008642
12:00+8ssw3351100 0.2 10071612
15:00+8sw334594 0.4 10071894
18:00+8wsw334361 0.0 10071657
21:00+3sw226976 0.0 100722